timestamp,surface_pressure_avg,surface_temp_avg,battery_voltage,lat,long
2018-06-14 00:00:00+00:00,381.5762,5.97,13.21,47.84626,-54.09684
2018-06-14 00:10:00+00:00,377.168,5.98,13.13,47.84626,-54.09684
2018-06-14 00:20:00+00:00,370.6912,5.98,13.13,47.84626,-54.09684
2018-06-14 00:30:00+00:00,367.123,5.99,13.13,47.84626,-54.09684
2018-06-14 00:40:00+00:00,363.9579,5.99,13.13,47.84626,-54.09684
2018-06-14 00:50:00+00:00,355.2479,5.99,13.13,47.84626,-54.09684
2018-06-14 01:00:00+00:00,348.5863,5.99,13.05,47.84626,-54.09684
2018-06-14 01:10:00+00:00,347.4131,6.0,12.97,47.84626,-54.09684
2018-06-14 01:20:00+00:00,342.4664,5.99,13.05,47.84626,-54.09684
2018-06-14 01:30:00+00:00,331.2996,5.99,13.05,47.84626,-54.09684
2018-06-14 01:40:00+00:00,327.0947,6.0,13.05,47.84626,-54.09684
2018-06-14 01:50:00+00:00,320.338,6.0,13.05,47.84626,-54.09684
2018-06-14 02:00:00+00:00,307.4713,5.99,13.05,47.84626,-54.09684
2018-06-14 02:10:00+00:00,295.8547,5.99,12.97,47.84626,-54.09684
2018-06-14 02:20:00+00:00,289.2314,6.0,12.97,47.84626,-54.09684
2018-06-14 02:30:00+00:00,280.6863,6.0,13.05,47.84626,-54.09684
2018-06-14 02:40:00+00:00,270.758,6.0,13.05,47.84626,-54.09684
2018-06-14 02:50:00+00:00,258.8981,6.0,13.05,47.84626,-54.09684
2018-06-14 03:00:00+00:00,247.9781,5.99,12.97,47.84626,-54.09684
2018-06-14 03:10:00+00:00,238.7914,5.99,12.89,47.84626,-54.09684
2018-06-14 03:20:00+00:00,228.6364,5.99,12.97,47.84626,-54.09684
2018-06-14 03:30:00+00:00,219.1531,5.99,12.97,47.84626,-54.09684
2018-06-14 03:40:00+00:00,211.8465,5.98,12.97,47.84626,-54.09684
2018-06-14 03:50:00+00:00,206.3031,5.98,12.97,47.84626,-54.09684
2018-06-14 04:00:00+00:00,196.2448,5.97,12.97,47.84626,-54.09684
2018-06-14 04:10:00+00:00,187.5481,5.93,12.89,47.84626,-54.09684
2018-06-14 04:20:00+00:00,185.8848,5.93,12.97,47.84626,-54.09684
2018-06-14 04:30:00+00:00,180.1165,5.93,12.97,47.84626,-54.09684
2018-06-14 04:40:00+00:00,173.5398,5.9,12.97,47.84626,-54.09684
2018-06-14 04:50:00+00:00,170.4598,5.9,12.97,47.84626,-54.09684
2018-06-14 05:00:00+00:00,168.7315,5.9,12.89,47.84626,-54.09684
2018-06-14 05:10:00+00:00,167.9215,5.9,12.81,47.84626,-54.09684
2018-06-14 05:20:00+00:00,165.3048,5.9,12.89,47.84626,-54.09684
2018-06-14 05:30:00+00:00,166.4698,5.89,12.89,47.84626,-54.09684
2018-06-14 05:40:00+00:00,166.5432,5.89,12.97,47.84626,-54.09684
2018-06-14 05:50:00+00:00,163.8582,5.89,12.97,47.84626,-54.09684
2018-06-14 06:00:00+00:00,166.6932,5.88,12.89,47.84626,-54.09684
2018-06-14 06:10:00+00:00,171.0631,5.9,12.81,47.84626,-54.09684
2018-06-14 06:20:00+00:00,172.6765,5.89,12.89,47.84626,-54.09684
2018-06-14 06:30:00+00:00,173.7465,5.88,12.89,47.84626,-54.09684
2018-06-14 06:40:00+00:00,178.3848,5.87,12.89,47.84626,-54.09684
2018-06-14 06:50:00+00:00,183.8499,5.87,12.97,47.84626,-54.09684
2018-06-14 07:00:00+00:00,185.5498,5.84,12.89,47.84626,-54.09684
2018-06-14 07:10:00+00:00,191.6681,5.82,12.81,47.84626,-54.09684
2018-06-14 07:20:00+00:00,199.9681,5.8,12.89,47.84626,-54.09684
2018-06-14 07:30:00+00:00,202.1298,5.8,12.89,47.84626,-54.09684
2018-06-14 07:40:00+00:00,208.8048,5.8,12.89,47.84626,-54.09684
2018-06-14 07:50:00+00:00,218.6447,5.78,12.89,47.84626,-54.09684
2018-06-14 08:00:00+00:00,221.9781,5.78,12.89,47.84626,-54.09684
2018-06-14 08:10:00+00:00,225.8031,5.78,12.81,47.84626,-54.09684
2018-06-14 08:20:00+00:00,231.2681,5.75,12.89,47.84626,-54.09684
2018-06-14 08:30:00+00:00,239.2648,5.72,12.89,47.84626,-54.09684
2018-06-14 08:40:00+00:00,246.8264,5.77,12.97,47.84626,-54.09684
2018-06-14 08:50:00+00:00,249.7831,5.79,12.97,47.84626,-54.09684
2018-06-14 09:00:00+00:00,257.0031,5.8,12.97,47.84626,-54.09684
2018-06-14 09:10:00+00:00,269.1214,5.76,12.89,47.84626,-54.09684
2018-06-14 09:20:00+00:00,280.1163,5.77,12.97,47.84626,-54.09684
2018-06-14 09:30:00+00:00,289.933,5.79,13.05,47.84626,-54.09684
2018-06-14 09:40:00+00:00,299.6463,5.8,13.05,47.84626,-54.09684
2018-06-14 09:50:00+00:00,310.1763,5.8,13.21,47.84626,-54.09684
2018-06-14 10:00:00+00:00,316.633,5.9,13.21,47.84626,-54.09684
2018-06-14 10:10:00+00:00,327.0347,6.0,13.21,47.84626,-54.09684
2018-06-14 10:20:00+00:00,338.4163,6.08,13.29,47.84626,-54.09684
2018-06-14 10:30:00+00:00,344.9229,6.1,13.44,47.84626,-54.09684
2018-06-14 10:40:00+00:00,347.0829,6.1,13.53,47.84626,-54.09684
2018-06-14 10:50:00+00:00,350.6163,6.14,13.68,47.84626,-54.09684
2018-06-14 11:00:00+00:00,362.5063,6.15,13.76,47.84626,-54.09684
2018-06-14 11:10:00+00:00,366.7679,6.14,13.76,47.84626,-54.09684
2018-06-14 11:20:00+00:00,364.4663,6.17,13.92,47.84626,-54.09684
2018-06-14 11:30:00+00:00,368.3563,6.19,14.0,47.84626,-54.09684
2018-06-14 11:40:00+00:00,375.6196,6.2,14.0,47.84626,-54.09684
2018-06-14 11:50:00+00:00,372.6395,6.19,14.08,47.84626,-54.09684
2018-06-14 12:00:00+00:00,362.7346,6.2,14.08,47.84626,-54.09684
2018-06-14 12:10:00+00:00,359.678,6.2,14.08,47.84626,-54.09684
2018-06-14 12:20:00+00:00,359.7996,6.2,14.32,47.84626,-54.09684
2018-06-14 12:30:00+00:00,358.3229,6.2,14.4,47.84626,-54.09684
2018-06-14 12:40:00+00:00,351.4047,6.2,14.96,47.84626,-54.09684
2018-06-14 12:50:00+00:00,351.098,6.2,14.64,47.84626,-54.09684
2018-06-14 13:00:00+00:00,348.6613,6.2,14.4,47.84626,-54.09684
2018-06-14 13:10:00+00:00,344.4963,6.2,14.32,47.84626,-54.09684
2018-06-14 13:20:00+00:00,344.0963,6.2,15.11,47.84626,-54.09684
2018-06-14 13:30:00+00:00,344.9529,6.2,16.23,47.84626,-54.09684
2018-06-14 13:40:00+00:00,334.028,6.26,14.72,47.84626,-54.09684
2018-06-14 13:50:00+00:00,323.668,6.3,16.63,47.84626,-54.09684
2018-06-14 14:00:00+00:00,317.3214,6.3,15.27,47.84626,-54.09684
2018-06-14 14:10:00+00:00,310.5564,6.34,14.48,47.84626,-54.09684
2018-06-14 14:20:00+00:00,299.898,6.4,15.2,47.84626,-54.09684
2018-06-14 14:30:00+00:00,294.4347,6.46,14.8,47.84626,-54.09684
2018-06-14 14:40:00+00:00,286.7347,6.5,14.88,47.84626,-54.09684
2018-06-14 14:50:00+00:00,276.8131,6.58,14.72,47.84626,-54.09684
2018-06-14 15:00:00+00:00,267.2164,6.64,14.64,47.84626,-54.09684
2018-06-14 15:10:00+00:00,255.0914,6.7,14.72,47.84626,-54.09684
2018-06-14 15:20:00+00:00,248.4581,6.72,14.64,47.84626,-54.09684
2018-06-14 15:30:00+00:00,241.8597,6.76,14.72,47.84626,-54.09684
2018-06-14 15:40:00+00:00,233.2015,6.78,14.72,47.84626,-54.09684
2018-06-14 15:50:00+00:00,224.0831,6.8,14.64,47.84626,-54.09684
2018-06-14 16:00:00+00:00,218.5681,6.8,14.56,47.84626,-54.09684
2018-06-14 16:10:00+00:00,211.2848,6.89,14.48,47.84626,-54.09684
2018-06-14 16:20:00+00:00,206.5531,7.17,14.56,47.84626,-54.09684
2018-06-14 16:30:00+00:00,202.9115,7.38,14.48,47.84626,-54.09684
2018-06-14 16:40:00+00:00,194.5715,7.6,14.48,47.84626,-54.09684
2018-06-14 16:50:00+00:00,187.0365,7.7,14.56,47.84626,-54.09684
2018-06-14 17:00:00+00:00,185.3315,7.7,14.4,47.84626,-54.09684
2018-06-14 17:10:00+00:00,185.9631,7.6,14.32,47.84626,-54.09684
2018-06-14 17:20:00+00:00,182.9815,7.5,14.4,47.84626,-54.09684
2018-06-14 17:30:00+00:00,182.0698,7.4,14.4,47.84626,-54.09684
2018-06-14 17:40:00+00:00,185.5931,7.26,14.4,47.84626,-54.09684
2018-06-14 17:50:00+00:00,184.1815,7.2,14.4,47.84626,-54.09684
2018-06-14 18:00:00+00:00,182.3331,7.2,14.32,47.84626,-54.09684
2018-06-14 18:10:00+00:00,190.9415,7.1,14.24,47.84626,-54.09684
2018-06-14 18:20:00+00:00,198.3331,7.0,14.32,47.84626,-54.09684
2018-06-14 18:30:00+00:00,196.0731,7.0,14.32,47.84626,-54.09684
2018-06-14 18:40:00+00:00,197.1731,7.0,14.32,47.84626,-54.09684
2018-06-14 18:50:00+00:00,202.8765,6.9,14.32,47.84626,-54.09684
2018-06-14 19:00:00+00:00,206.1881,6.7,14.24,47.84626,-54.09684
2018-06-14 19:10:00+00:00,206.0032,6.6,14.16,47.84626,-54.09684
2018-06-14 19:20:00+00:00,210.8998,6.6,14.32,47.84626,-54.09684
2018-06-14 19:30:00+00:00,218.4214,6.6,14.32,47.84626,-54.09684
2018-06-14 19:40:00+00:00,220.6314,6.6,14.32,47.84626,-54.09684
2018-06-14 19:50:00+00:00,224.7681,6.6,14.24,47.84626,-54.09684
2018-06-14 20:00:00+00:00,229.708,6.6,14.16,47.84626,-54.09684
2018-06-14 20:10:00+00:00,237.0498,6.62,14.08,47.84626,-54.09684
2018-06-14 20:20:00+00:00,244.1848,6.5,14.08,47.84626,-54.09684
2018-06-14 20:30:00+00:00,250.9681,6.2,14.08,47.84626,-54.09684
2018-06-14 20:40:00+00:00,256.0747,6.12,14.08,47.84626,-54.09684
2018-06-14 20:50:00+00:00,261.4964,6.17,14.0,47.84626,-54.09684
2018-06-14 21:00:00+00:00,270.9081,6.2,13.92,47.84626,-54.09684
2018-06-14 21:10:00+00:00,281.6381,6.2,13.76,47.84626,-54.09684
2018-06-14 21:20:00+00:00,288.2464,6.23,13.76,47.84626,-54.09684
2018-06-14 21:30:00+00:00,293.6547,6.39,13.76,47.84626,-54.09684
2018-06-14 21:40:00+00:00,306.3713,6.45,13.76,47.84626,-54.09684
2018-06-14 21:50:00+00:00,315.5464,6.51,13.76,47.84626,-54.09684
2018-06-14 22:00:00+00:00,323.358,6.5,13.68,47.84626,-54.09684
2018-06-14 22:10:00+00:00,335.4113,6.47,13.53,47.84626,-54.09684
2018-06-14 22:20:00+00:00,344.1462,6.6,13.53,47.84626,-54.09684
2018-06-14 22:30:00+00:00,351.4829,6.6,13.44,47.84626,-54.09684
2018-06-14 22:40:00+00:00,362.8813,6.56,13.44,47.84626,-54.09684
2018-06-14 22:50:00+00:00,375.7996,6.59,13.44,47.84626,-54.09684
2018-06-14 23:00:00+00:00,378.4363,6.6,13.37,47.84626,-54.09684
2018-06-14 23:10:00+00:00,382.7896,6.6,13.21,47.84626,-54.09684
2018-06-14 23:20:00+00:00,389.2579,6.67,13.21,47.84626,-54.09684
2018-06-14 23:30:00+00:00,387.0412,6.7,13.21,47.84626,-54.09684
2018-06-14 23:40:00+00:00,390.1329,6.7,13.21,47.84626,-54.09684
2018-06-14 23:50:00+00:00,401.918,6.02,13.21,47.84626,-54.09684
